Regional Weather Roundup
Issued by NWS

Home | Current Version | Previous Version | Graphics & Text | Print | Product List | Glossary Off
Versions: 1 2 3 4 5 6 7 8 9 10 11 12 13 14 15 16 17 18 19 20 21 22 23 24 25 26 27 28 29 30 31 32 33 34 35 36 37 38 39 40 41 42 43 44 45 46 47 48 49 50

000
ASUS43 KFSD 191802
RWRSD

WEATHER ROUNDUP FOR SOUTH DAKOTA
NATIONAL WEATHER SERVICE SIOUX FALLS SD
1200 PM CST THU JAN 19 2017

NOTE: "FAIR" INDICATES FEW OR NO CLOUDS BELOW 12,000 FEET WITH NO
SIGNIFICANT WEATHER AND/OR OBSTRUCTIONS TO VISIBILITY.


SDZ001>005-009-010-012>017-191900-
NORTHWEST AND NORTH CENTRAL SOUTH DAKOTA

CITY           SKY/WX    TMP DP  RH WIND       PRES   REMARKS
BUFFALO          N/A     34  22  61 NW3       29.43F
FAITH            N/A     24  18  77 NW6       29.48F WCI  17
MOBRIDGE       CLOUDY    17  11  77 CALM      29.51F
$$

SDZ012>016-024>037-041>051-057-063-072>074-191900-
SOUTHWEST AND SOUTH CENTRAL SOUTH DAKOTA

CITY           SKY/WX    TMP DP  RH WIND       PRES   REMARKS
RAPID CTY ARPT CLOUDY    43  27  53 N7        29.47F
PIERRE         CLOUDY    21  19  92 CALM      29.53F
CUSTER         SUNNY     51  14  22 W7        29.51F
ELLSWORTH AFB  CLOUDY    46  25  42 N8        29.47F
PHILIP         CLOUDY    26  19  74 W3        29.51F
PINE RIDGE     CLOUDY    38  25  59 SW15      29.52F
SPEARFISH      FAIR      48  19  32 CALM      29.49F
WINNER         FAIR      43  33  68 S15       29.55F
$$

SDZ004>011-016>023-039-040-191900-
NORTHEAST SOUTH DAKOTA

CITY           SKY/WX    TMP DP  RH WIND       PRES   REMARKS
ABERDEEN       CLOUDY    34  31  88 S9        29.59S FOG     WCI  27
WATERTOWN      MOSUNNY   34  33  96 S14       29.60F WCI  25
BROOKINGS      FOG       35  33  92 S16       29.64F VSB 1/4 WCI  25
SISSETON         N/A     38  36  92 S10       29.59F
$$

SDZ017-020-022-023-036>040-048>070-191900-
SOUTHEAST SOUTH DAKOTA

CITY           SKY/WX    TMP DP  RH WIND       PRES   REMARKS
SIOUX FALLS    FOG       36  36 100 S14       29.68F VSB 1/4
HURON          FOG       34  34 100 S17       29.59F VSB 1/2 WCI  23
CHAMBERLAIN    CLOUDY    39  38  94 S9        29.57F
MITCHELL       FOG       37  37 100 S16       29.62F VSB 1/4
YANKTON        CLOUDY    39  36  87 SE10      29.67F
$$

ABBREVIATIONS USED IN REMARKS
   TC - TEMPERATURE IN CELSIUS
  WCI - WIND CHILL INDEX
   HX - HEAT INDEX
  VSB - VISIBILITY




USA.gov is the U.S. government's official web portal to all federal, state and local government web resources and services.